EW9515 Weather Reports


Display with metric or nautical units.
time (UTC)temp
F
wind
direction
speed
MPH
gust
MPH
rain 1hr
in
rain 24hr
in
rain mn
in
humidity
%
barometer
mb
20260507042443 80 23 1.0 2.0 0.00 0.01 0.01 67 1010.3
20260507041419 80 23 1.0 2.0 0.00 0.01 0.01 64 1010.2
20260507040423 80 0 2.0 4.0 0.00 0.01 0.01 67 1010.4
20260507035419 80 0.0 1.0 0.00 0.01 0.01 66 1010.3
20260507034418 80 338 3.0 7.0 0.00 0.01 0.01 67 1010.6
20260507033419 80 23 1.0 2.0 0.00 0.01 0.01 67 1010.7
20260507032418 80 0 1.0 2.0 0.00 0.01 0.01 68 1010.7
20260507031419 80 0 2.0 3.0 0.00 0.01 0.01 68 1010.9
20260507030443 80 23 1.0 3.0 0.00 0.01 0.01 67 1010.9
20260507025439 79 0 2.0 4.0 0.00 0.01 0.01 68 1011.0
20260507024423 80 0 1.0 2.0 0.00 0.01 0.01 67 1011.1
20260507023419 80 0 1.0 3.0 0.00 0.01 0.01 68 1011.2
20260507022418 79 23 4.0 7.0 0.00 0.01 0.01 70 1011.6
20260507021419 79 293 2.0 5.0 0.00 0.02 0.01 70 1011.8
20260507020418 78 180 1.0 2.0 0.00 0.02 0.01 72 1012.0
20260507015419 78 0 3.0 7.0 0.00 0.03 0.01 72 1012.0
20260507014418 78 23 2.0 4.0 0.00 0.03 0.01 72 1012.0
20260507013418 78 315 2.0 3.0 0.00 0.03 0.01 73 1012.1
20260507012438 78 45 1.0 3.0 0.00 0.03 0.01 74 1012.2
20260507011419 78 23 2.0 5.0 0.00 0.03 0.01 73 1012.3
20260507010418 77 0 3.0 5.0 0.00 0.03 0.01 74 1012.5
20260507005423 77 338 2.0 3.0 0.00 0.03 0.01 75 1012.9
20260507004418 77 0 2.0 2.0 0.00 0.03 0.01 77 1013.1
20260507003419 77 248 1.0 2.0 0.00 0.03 0.01 77 1013.3
20260507002418 76 0.0 1.0 0.00 0.03 0.01 78 1013.6
20260507001419 75 0.0 1.0 0.00 0.03 0.01 78 1013.6
20260507000420 75 338 1.0 3.0 0.00 0.03 0.01 79 1013.7
20260506235519 75 0 1.0 2.0 0.00 0.03 0.01 79 1013.9
20260506234418 74 0 2.0 4.0 0.00 0.03 0.01 79 1014.1
20260506233418 75 23 2.0 4.0 0.00 0.03 0.01 78 1014.1
20260506232418 75 293 3.0 6.0 0.00 0.03 0.01 77 1014.2
20260506231444 75 68 1.0 3.0 0.00 0.03 0.01 79 1014.2
20260506230438 74 0 1.0 2.0 0.00 0.03 0.01 80 1014.1
20260506225419 75 315 1.0 1.0 0.00 0.03 0.01 80 1014.2
20260506224418 73 0.0 0.0 0.00 0.03 0.01 81 1014.2
20260506223423 73 0 1.0 6.0 0.00 0.03 0.01 82 1014.0
20260506222417 72 315 2.0 3.0 0.00 0.03 0.01 84 1013.9
20260506221418 71 0.0 1.0 0.00 0.03 0.01 87 1014.1
20260506220418 70 315 1.0 2.0 0.00 0.03 0.01 89 1014.1
20260506215438 69 0.0 1.0 0.00 0.03 0.01 92 1014.0
20260506214417 68 158 1.0 2.0 0.00 0.03 0.01 93 1014.0
20260506213418 67 0.0 1.0 0.00 0.03 0.01 94 1014.0
20260506212417 66 0.0 1.0 0.00 0.03 0.01 94 1013.9
20260506211424 65 0.0 1.0 0.00 0.03 0.01 94 1013.7
20260506210418 64 180 1.0 2.0 0.00 0.03 0.01 93 1013.7
20260506205419 64 0.0 1.0 0.00 0.03 0.01 93 1013.8
20260506204438 64 0.0 0.0 0.00 0.03 0.01 94 1013.8
20260506203428 64 0.0 1.0 0.00 0.03 0.01 94 1013.7
20260506202417 64 0.0 1.0 0.00 0.03 0.01 93 1013.6
20260506201438 64 0.0 0.0 0.00 0.03 0.01 93 1013.6
20260506200417 64 0.0 0.0 0.01 0.03 0.01 93 1013.4
20260506195438 64 0.0 0.0 0.01 0.03 0.01 93 1013.2
20260506194417 63 180 1.0 2.0 0.01 0.03 0.01 93 1013.0
20260506193418 63 0.0 0.0 0.01 0.03 0.01 92 1013.0
20260506192417 63 0.0 0.0 0.01 0.03 0.01 93 1012.9
20260506191417 64 0.0 1.0 0.01 0.03 0.01 92 1012.8
20260506190417 64 0.0 0.0 0.00 0.02 0.00 92 1012.8
20260506185458 64 0.0 1.0 0.00 0.02 0.00 92 1012.9
20260506184437 64 0.0 1.0 0.00 0.02 0.00 92 1012.8
20260506183418 64 0.0 1.0 0.00 0.02 0.00 92 1013.0
20260506182417 64 0.0 0.0 0.00 0.02 0.00 92 1013.0
20260506181423 65 0.0 1.0 0.00 0.02 0.00 92 1013.0
20260506180438 65 0.0 1.0 0.00 0.02 0.00 92 1013.1
20260506175438 65 0.0 0.0 0.00 0.02 0.00 92 1013.0
20260506174417 65 180 1.0 2.0 0.00 0.02 0.00 93 1013.1
20260506173423 64 0.0 0.0 0.00 0.02 0.00 92 1013.3
20260506172417 64 180 1.0 2.0 0.00 0.02 0.00 92 1013.3
20260506171418 65 0.0 1.0 0.00 0.02 0.00 92 1013.3
20260506170417 65 0.0 0.0 0.00 0.02 0.00 92 1013.4
20260506165418 65 0.0 1.0 0.00 0.02 0.00 92 1013.6
20260506164417 65 0.0 1.0 0.00 0.02 0.00 92 1013.6
20260506163422 65 0.0 1.0 0.00 0.02 0.00 92 1013.5
20260506162417 65 180 1.0 2.0 0.00 0.02 0.00 92 1013.6
20260506161423 65 180 1.0 2.0 0.00 0.02 0.00 92 1013.5
20260506160417 65 180 1.0 2.0 0.00 0.02 0.00 92 1013.7
20260506155418 65 0.0 1.0 0.00 0.02 0.00 92 1013.7
20260506154437 65 180 1.0 1.0 0.00 0.02 0.00 92 1013.8
20260506153417 64 0.0 0.0 0.00 0.02 0.00 92 1013.9
20260506152417 64 0.0 1.0 0.00 0.02 0.00 92 1014.0
20260506151458 64 0.0 0.0 0.00 0.02 0.00 92 1014.1
20260506150559 65 0.0 1.0 0.00 0.02 0.00 92 1014.2
20260506145423 65 0.0 1.0 0.00 0.02 0.00 91 1014.0
20260506144437 65 180 1.0 1.0 0.00 0.02 0.00 91 1014.2
20260506143417 65 180 1.0 2.0 0.00 0.02 0.00 91 1014.2
20260506142417 65 180 1.0 1.0 0.00 0.02 0.00 91 1014.3
20260506141417 65 0.0 1.0 0.00 0.02 0.00 91 1014.2
20260506140416 65 0.0 0.0 0.00 0.02 0.00 91 1014.3
20260506135418 66 0.0 0.0 0.00 0.02 0.02 91 1014.2
20260506134417 65 0.0 1.0 0.00 0.02 0.02 91 1014.3
20260506133438 65 0.0 0.0 0.00 0.02 0.02 91 1014.6
20260506132418 65 0.0 1.0 0.00 0.02 0.02 91 1014.5
20260506131424 66 0.0 1.0 0.00 0.02 0.02 91 1014.7
20260506130503 66 0.0 0.0 0.00 0.02 0.02 90 1014.8
20260506125418 66 0.0 0.0 0.00 0.02 0.02 91 1014.9
20260506124422 66 0.0 0.0 0.00 0.02 0.02 91 1014.8
20260506123438 66 180 1.0 2.0 0.00 0.02 0.02 91 1015.1
20260506122417 66 0.0 0.0 0.00 0.02 0.02 91 1015.0
20260506121418 66 0.0 0.0 0.00 0.02 0.02 91 1015.0
20260506120422 66 0.0 0.0 0.00 0.02 0.02 90 1015.1
20260506115418 66 0.0 0.0 0.00 0.02 0.02 90 1015.1
20260506114417 66 0.0 1.0 0.00 0.02 0.02 90 1015.1
20260506113539 66 0.0 0.0 0.00 0.02 0.02 90 1015.2
20260506112417 66 0.0 0.0 0.00 0.02 0.02 90 1015.2
20260506111423 66 0.0 0.0 0.00 0.02 0.02 89 1015.5
20260506110417 67 0.0 0.0 0.00 0.02 0.02 89 1015.4
20260506105418 67 0.0 0.0 0.00 0.02 0.02 89 1015.5
20260506104438 67 0.0 1.0 0.00 0.02 0.02 89 1015.5
20260506103418 67 0.0 0.0 0.00 0.02 0.02 89 1015.4
20260506102438 67 180 1.0 1.0 0.00 0.02 0.02 89 1015.4
20260506101418 67 0.0 0.0 0.00 0.02 0.02 88 1015.4
20260506100417 67 0.0 1.0 0.00 0.02 0.02 88 1015.5
20260506095418 68 0.0 0.0 0.00 0.02 0.02 88 1015.5
20260506094417 68 0.0 0.0 0.00 0.02 0.02 88 1015.4
20260506093417 68 180 1.0 1.0 0.00 0.02 0.02 88 1015.4
20260506092437 68 180 1.0 1.0 0.00 0.02 0.02 88 1015.4
20260506091438 68 0.0 1.0 0.00 0.02 0.02 88 1015.3
20260506090423 68 0.0 1.0 0.00 0.02 0.02 88 1015.1
20260506085443 68 0.0 0.0 0.00 0.02 0.02 87 1015.2
20260506084422 69 0.0 1.0 0.00 0.02 0.02 87 1015.0
20260506083418 69 0.0 1.0 0.00 0.02 0.02 87 1014.7
20260506082417 69 0.0 1.0 0.00 0.02 0.02 86 1014.6
20260506081438 69 0.0 1.0 0.00 0.02 0.02 86 1014.5
20260506080437 69 180 1.0 1.0 0.00 0.02 0.02 86 1014.4
20260506073437 70 180 2.0 3.0 0.00 0.02 0.02 85 1014.3
20260506072437 70 180 3.0 4.0 0.00 0.02 0.02 84 1014.3
20260506071422 71 203 2.0 3.0 0.00 0.02 0.02 84 1014.1
20260506070417 71 180 2.0 3.0 0.00 0.02 0.02 83 1013.9
20260506062417 72 158 3.0 5.0 0.00 0.02 0.02 82 1013.9
20260506061417 72 180 5.0 9.0 0.00 0.02 0.02 82 1013.9
20260506060417 72 158 3.0 4.0 0.00 0.02 0.02 82 1013.9
20260506050417 73 158 4.0 8.0 0.00 0.02 0.02 81 1013.9
20260506044417 73 158 4.0 7.0 0.00 0.02 0.02 81 1014.0
20260506043417 73 158 2.0 3.0 0.00 0.02 0.02 82 1013.9